FW3222 Weather Reports


Display with metric or nautical units.
time (UTC)temp
F
wind
direction
speed
MPH
gust
MPH
rain 1hr
in
rain 24hr
in
rain mn
in
humidity
%
barometer
mb
20260906212500 77 5 1.0 8.0 0.00 0.00 0.00 40 1016.2
20260906211728 77 355 1.0 8.0 0.00 0.00 0.00 40 1016.3
20260906211015 78 273 1.0 6.0 0.00 0.00 0.00 40 1016.2
20260906210702 78 355 1.0 7.0 0.00 0.00 0.00 41 1016.3
20260906210356 78 16 2.0 7.0 0.00 0.00 0.00 41 1016.3
20260906210044 78 332 2.0 7.0 0.00 0.00 0.00 40 1016.3
20260906205314 78 300 2.0 8.0 0.00 0.00 0.00 39 1016.2
20260906205012 78 33 2.0 8.0 0.00 0.00 0.00 40 1016.1
20260906204711 78 325 3.0 8.0 0.00 0.00 0.00 39 1016.2
20260906204402 78 269 3.0 8.0 0.00 0.00 0.00 41 1016.2
20260906204052 78 40 3.0 8.0 0.00 0.00 0.00 38 1016.2
20260906203748 78 0 2.0 8.0 0.00 0.00 0.00 40 1016.3
20260906203443 78 14 2.0 8.0 0.00 0.00 0.00 41 1016.3
20260906203130 78 10 2.0 12.0 0.00 0.00 0.00 42 1016.4
20260906202831 78 69 2.0 12.0 0.00 0.00 0.00 41 1016.4
20260906202527 78 355 3.0 12.0 0.00 0.00 0.00 43 1016.4
20260906202215 78 348 4.0 12.0 0.00 0.00 0.00 41 1016.3
20260906201913 78 61 4.0 12.0 0.00 0.00 0.00 41 1016.3
20260906201617 78 26 4.0 12.0 0.00 0.00 0.00 39 1016.3
20260906201317 78 80 4.0 9.0 0.00 0.00 0.00 38 1016.4
20260906201011 79 81 3.0 9.0 0.00 0.00 0.00 41 1016.4
20260906200710 79 126 3.0 9.0 0.00 0.00 0.00 41 1016.4
20260906200409 78 92 2.0 9.0 0.00 0.00 0.00 40 1016.3
20260906195332 78 0 2.0 8.0 0.00 0.00 0.00 41 1016.3
20260906194606 78 311 2.0 8.0 0.00 0.00 0.00 41 1016.4
20260906193847 78 17 2.0 6.0 0.00 0.00 0.00 44 1016.3
20260906193534 77 29 1.0 10.0 0.00 0.00 0.00 45 1016.4
20260906193230 77 322 2.0 10.0 0.00 0.00 0.00 41 1016.4
20260906192928 77 290 2.0 10.0 0.00 0.00 0.00 43 1016.5
20260906192618 77 94 3.0 10.0 0.00 0.00 0.00 41 1016.5
20260906192307 78 328 3.0 10.0 0.00 0.00 0.00 42 1016.6
20260906192004 78 44 4.0 10.0 0.00 0.00 0.00 41 1016.6
20260906191656 78 54 3.0 9.0 0.00 0.00 0.00 44 1016.5
20260906191353 78 5 3.0 9.0 0.00 0.00 0.00 42 1016.5
20260906191049 78 124 3.0 10.0 0.00 0.00 0.00 42 1016.6
20260906190743 78 257 3.0 10.0 0.00 0.00 0.00 41 1016.5
20260906190445 78 46 3.0 10.0 0.00 0.00 0.00 42 1016.5
20260906190145 78 355 3.0 10.0 0.00 0.00 0.00 43 1016.6
20260906185416 78 46 2.0 10.0 0.00 0.00 0.00 43 1016.8
20260906185107 78 76 2.0 10.0 0.00 0.00 0.00 47 1016.7
20260906184338 78 34 3.0 15.0 0.00 0.00 0.00 41 1016.9
20260906183625 78 92 3.0 15.0 0.00 0.00 0.00 46 1016.9
20260906182853 78 255 4.0 15.0 0.00 0.00 0.00 45 1016.9
20260906182549 78 89 2.0 11.0 0.00 0.00 0.00 43 1016.9
20260906181828 78 28 2.0 8.0 0.00 0.00 0.00 46 1016.9
20260906181100 77 71 2.0 11.0 0.00 0.00 0.00 45 1016.9
20260906180801 77 31 3.0 11.0 0.00 0.00 0.00 44 1016.9
20260906180454 77 263 3.0 11.0 0.00 0.00 0.00 45 1016.9
20260906180152 77 16 2.0 11.0 0.00 0.00 0.00 45 1016.9
20260906175842 77 107 2.0 11.0 0.00 0.00 0.00 48 1017.1
20260906175544 77 5 3.0 7.0 0.00 0.00 0.00 45 1017.0
20260906175246 77 303 3.0 12.0 0.00 0.00 0.00 47 1017.1
20260906174950 77 306 3.0 12.0 0.00 0.00 0.00 47 1017.0
20260906174650 77 0 3.0 12.0 0.00 0.00 0.00 50 1017.1
20260906174342 76 21 4.0 12.0 0.00 0.00 0.00 46 1017.1
20260906174033 76 38 4.0 12.0 0.00 0.00 0.00 47 1017.1
20260906173722 76 82 4.0 12.0 0.00 0.00 0.00 47 1017.3
20260906172951 76 312 3.0 11.0 0.00 0.00 0.00 50 1017.3
20260906172655 75 355 2.0 11.0 0.00 0.00 0.00 49 1017.3
20260906172358 75 91 3.0 11.0 0.00 0.00 0.00 46 1017.4
20260906172054 76 11 3.0 11.0 0.00 0.00 0.00 53 1017.4
20260906171750 76 48 4.0 11.0 0.00 0.00 0.00 51 1017.4
20260906171442 76 84 5.0 11.0 0.00 0.00 0.00 52 1017.4
20260906171143 76 96 4.0 11.0 0.00 0.00 0.00 50 1017.4
20260906170843 76 75 3.0 10.0 0.00 0.00 0.00 54 1017.5
20260906170539 77 92 3.0 10.0 0.00 0.00 0.00 50 1017.5
20260906170238 77 15 3.0 10.0 0.00 0.00 0.00 52 1017.4
20260906165930 76 5 3.0 10.0 0.00 0.00 0.00 52 1017.5
20260906165206 76 283 3.0 10.0 0.00 0.00 0.00 53 1017.4
20260906164025 76 304 3.0 14.0 0.00 0.00 0.00 53 1017.5
20260906163718 76 102 3.0 14.0 0.00 0.00 0.00 53 1017.4
20260906163406 76 0 3.0 14.0 0.00 0.00 0.00 55 1017.3
20260906162650 75 74 3.0 4.0 0.00 0.00 0.00 54 1017.3
20260906155112 73 11 2.0 8.0 0.00 0.00 0.00 57 1017.4
20260906154810 74 67 2.0 10.0 0.00 0.00 0.00 57 1017.4
20260906154507 74 103 2.0 10.0 0.00 0.00 0.00 58 1017.5
20260906154156 74 87 2.0 10.0 0.00 0.00 0.00 59 1017.4
20260906153442 73 280 2.0 10.0 0.00 0.00 0.00 61 1017.3
20260906153134 72 42 1.0 10.0 0.00 0.00 0.00 60 1017.3
20260906152825 72 13 1.0 7.0 0.00 0.00 0.00 59 1017.3
20260906152512 71 87 1.0 7.0 0.00 0.00 0.00 62 1017.2
20260906152206 71 165 2.0 7.0 0.00 0.00 0.00 61 1017.2
20260906151905 71 68 2.0 7.0 0.00 0.00 0.00 62 1017.2
20260906151557 71 110 2.0 7.0 0.00 0.00 0.00 63 1017.1
20260906151259 70 91 2.0 7.0 0.00 0.00 0.00 62 1017.2
20260906150956 70 26 2.0 8.0 0.00 0.00 0.00 63 1017.2
20260906150229 70 84 2.0 8.0 0.00 0.00 0.00 63 1017.1
20260906145932 69 80 2.0 8.0 0.00 0.00 0.00 63 1017.1
20260906145626 69 279 2.0 8.0 0.00 0.00 0.00 64 1017.0
20260906145319 69 23 2.0 8.0 0.00 0.00 0.00 64 1016.9
20260906145021 69 17 1.0 7.0 0.00 0.00 0.00 65 1017.0
20260906144722 69 53 2.0 7.0 0.00 0.00 0.00 64 1017.0
20260906144426 69 323 2.0 6.0 0.00 0.00 0.00 65 1017.0
20260906143657 68 269 1.0 7.0 0.00 0.00 0.00 65 1016.9
20260906143345 68 257 1.0 7.0 0.00 0.00 0.00 65 1016.9
20260906143048 68 288 1.0 4.0 0.00 0.00 0.00 66 1016.9
20260906142317 68 311 1.0 4.0 0.00 0.00 0.00 66 1016.9
20260906142011 67 233 2.0 7.0 0.00 0.00 0.00 66 1016.9
20260906141700 67 107 2.0 7.0 0.00 0.00 0.00 66 1016.9
20260906141357 67 67 1.0 6.0 0.00 0.00 0.00 66 1016.9
20260906141059 67 34 1.0 7.0 0.00 0.00 0.00 67 1016.9
20260906140335 67 30 2.0 7.0 0.00 0.00 0.00 66 1016.9
20260906140030 66 9 2.0 7.0 0.00 0.00 0.00 67 1016.9
20260906135721 66 22 2.0 7.0 0.00 0.00 0.00 67 1016.8
20260906135423 66 262 2.0 7.0 0.00 0.00 0.00 67 1016.8
20260906134223 65 9 1.0 4.0 0.00 0.00 0.00 67 1016.8
20260906133925 65 101 1.0 3.0 0.00 0.00 0.00 67 1016.8
20260906133616 65 71 1.0 7.0 0.00 0.00 0.00 68 1016.8
20260906133309 65 63 2.0 7.0 0.00 0.00 0.00 68 1016.8
20260906133009 65 30 2.0 7.0 0.00 0.00 0.00 68 1016.7
20260906132659 65 12 2.0 7.0 0.00 0.00 0.00 69 1016.7
20260906132346 64 341 2.0 8.0 0.00 0.00 0.00 69 1016.8
20260906132038 64 5 3.0 8.0 0.00 0.00 0.00 69 1016.7
20260906131732 64 50 3.0 8.0 0.00 0.00 0.00 70 1016.8
20260906131423 64 24 2.0 8.0 0.00 0.00 0.00 70 1016.8
20260906131120 64 339 2.0 8.0 0.00 0.00 0.00 70 1016.7
20260906130822 63 15 2.0 8.0 0.00 0.00 0.00 71 1016.7
20260906130526 63 355 2.0 8.0 0.00 0.00 0.00 72 1016.8
20260906130222 63 5 2.0 7.0 0.00 0.00 0.00 72 1016.8
20260906125925 63 355 1.0 6.0 0.00 0.00 0.00 73 1016.8
20260906125612 63 298 1.0 6.0 0.00 0.00 0.00 74 1016.9
20260906125308 63 355 1.0 6.0 0.00 0.00 0.00 76 1016.8
20260906125005 63 9 2.0 6.0 0.00 0.00 0.00 76 1016.9
20260906124657 62 34 1.0 6.0 0.00 0.00 0.00 77 1016.8
20260906124351 62 61 1.0 6.0 0.00 0.00 0.00 77 1016.6
20260906124051 62 96 0.0 6.0 0.00 0.00 0.00 77 1016.6
20260906123752 62 17 0.0 0.0 0.00 0.00 0.00 77 1016.5
20260906123444 62 330 0.0 3.0 0.00 0.00 0.00 77 1016.5
20260906123131 62 9 0.0 3.0 0.00 0.00 0.00 77 1016.6
20260906122825 61 16 0.0 3.0 0.00 0.00 0.00 77 1016.6
20260906122529 61 49 0.0 0.0 0.00 0.00 0.00 77 1016.6
20260906122221 61 48 0.0 0.0 0.00 0.00 0.00 77 1016.5
20260906121923 61 9 0.0 2.0 0.00 0.00 0.00 78 1016.5
20260906121620 61 17 0.0 2.0 0.00 0.00 0.00 78 1016.5
20260906121311 61 9 0.0 2.0 0.00 0.00 0.00 78 1016.4
20260906121003 60 323 0.0 1.0 0.00 0.00 0.00 77 1016.4
20260906120652 60 254 0.0 0.0 0.00 0.00 0.00 77 1016.5
20260906120349 60 254 0.0 2.0 0.00 0.00 0.00 78 1016.4
20260906120035 60 305 0.0 2.0 0.00 0.00 0.00 77 1016.3
20260906115727 60 28 0.0 2.0 0.00 0.00 0.00 77 1016.3
20260906115417 59 207 0.0 0.0 0.00 0.00 0.00 77 1016.3
20260906115117 59 186 0.0 0.0 0.00 0.00 0.00 77 1016.2
20260906114805 59 185 0.0 0.0 0.00 0.00 0.00 77 1016.2
20260906114500 59 186 0.0 0.0 0.00 0.00 0.00 77 1016.2
20260906114147 59 185 0.0 0.0 0.00 0.00 0.00 77 1016.1
20260906113415 58 179 0.0 0.0 0.00 0.00 0.00 76 1015.9
20260906113112 58 136 0.0 0.0 0.00 0.00 0.00 76 1015.9
20260906112808 58 187 0.0 0.0 0.00 0.00 0.00 75 1015.8
20260906112459 58 187 0.0 0.0 0.00 0.00 0.00 74 1015.8
20260906111732 58 187 0.0 0.0 0.00 0.00 0.00 73 1015.7
20260906111422 58 187 0.0 0.0 0.00 0.00 0.00 73 1015.7
20260906111118 58 187 0.0 0.0 0.00 0.00 0.00 73 1015.6
20260906110817 58 187 0.0 0.0 0.00 0.00 0.00 73 1015.6
20260906110516 58 187 0.0 0.0 0.00 0.00 0.00 73 1015.6
20260906110212 58 187 0.0 0.0 0.00 0.00 0.00 73 1015.6
20260906105905 58 187 0.0 0.0 0.00 0.00 0.00 73 1015.6
20260906105552 58 187 0.0 0.0 0.00 0.00 0.00 73 1015.5
20260906105250 58 188 0.0 0.0 0.00 0.00 0.00 72 1015.6
20260906104939 58 188 0.0 0.0 0.00 0.00 0.00 72 1015.6
20260906104637 58 188 0.0 0.0 0.00 0.00 0.00 72 1015.5
20260906104328 58 175 0.0 0.0 0.00 0.00 0.00 72 1015.5
20260906104017 58 175 0.0 0.0 0.00 0.00 0.00 71 1015.5
20260906103718 58 161 0.0 0.0 0.00 0.00 0.00 71 1015.5
20260906103421 58 135 0.0 0.0 0.00 0.00 0.00 71 1015.5
20260906103125 58 135 0.0 0.0 0.00 0.00 0.00 71 1015.4
20260906102822 58 135 0.0 0.0 0.00 0.00 0.00 71 1015.4
20260906102524 58 135 0.0 0.0 0.00 0.00 0.00 70 1015.4
20260906102226 58 135 0.0 0.0 0.00 0.00 0.00 70 1015.5
20260906101919 58 134 0.0 0.0 0.00 0.00 0.00 70 1015.6
20260906101620 58 134 0.0 0.0 0.00 0.00 0.00 70 1015.4
20260906101324 58 134 0.0 0.0 0.00 0.00 0.00 69 1015.3
20260906100135 58 134 0.0 0.0 0.00 0.00 0.00 69 1015.4
20260906095829 58 134 0.0 0.0 0.00 0.00 0.00 69 1015.3
20260906095519 58 195 0.0 0.0 0.00 0.00 0.00 69 1015.2
20260906095214 58 195 0.0 0.0 0.00 0.00 0.00 69 1015.3
20260906094905 58 195 0.0 0.0 0.00 0.00 0.00 69 1015.3
20260906094601 58 195 0.0 0.0 0.00 0.00 0.00 69 1015.2
20260906093831 58 195 0.0 0.0 0.00 0.00 0.00 69 1015.1
20260906093107 58 195 0.0 0.0 0.00 0.00 0.00 68 1015.1
20260906092759 58 195 0.0 0.0 0.00 0.00 0.00 68 1015.0
20260906092503 58 195 0.0 0.0 0.00 0.00 0.00 68 1015.0
20260906092154 58 195 0.0 0.0 0.00 0.00 0.00 68 1014.9
20260906091854 58 195 0.0 0.0 0.00 0.00 0.00 68 1014.8
20260906091542 58 195 0.0 0.0 0.00 0.00 0.00 68 1014.7
20260906091238 58 195 0.0 0.0 0.00 0.00 0.00 68 1014.7
20260906090520 58 195 0.0 0.0 0.00 0.00 0.00 68 1014.6
20260906090224 58 195 0.0 0.0 0.00 0.00 0.00 68 1014.6
20260906085924 58 195 0.0 0.0 0.00 0.00 0.00 68 1014.7
20260906085615 58 195 0.0 0.0 0.00 0.00 0.00 68 1014.6
20260906085311 58 195 0.0 0.0 0.00 0.00 0.00 68 1014.6
20260906084530 59 195 0.0 0.0 0.00 0.00 0.00 68 1014.6
20260906084217 59 195 0.0 0.0 0.00 0.00 0.00 68 1014.5
20260906083920 59 195 0.0 0.0 0.00 0.00 0.00 68 1014.5
20260906083157 59 195 0.0 0.0 0.00 0.00 0.00 68 1014.3
20260906082848 59 195 0.0 0.0 0.00 0.00 0.00 68 1014.3
20260906082548 59 195 0.0 0.0 0.00 0.00 0.00 68 1014.3
20260906082251 59 195 0.0 0.0 0.00 0.00 0.00 68 1014.3
20260906081946 59 195 0.0 0.0 0.00 0.00 0.00 68 1014.2
20260906081636 59 206 0.0 0.0 0.00 0.00 0.00 67 1014.3
20260906080904 59 160 0.0 0.0 0.00 0.00 0.00 67 1014.3
20260906080600 59 160 0.0 0.0 0.00 0.00 0.00 67 1014.2
20260906080251 59 160 0.0 0.0 0.00 0.00 0.00 67 1014.2
20260906075952 59 160 0.0 0.0 0.00 0.00 0.00 67 1014.2
20260906075231 59 160 0.0 0.0 0.00 0.00 0.00 67 1014.3
20260906074934 59 160 0.0 0.0 0.00 0.00 0.00 67 1014.3
20260906074627 59 160 0.0 0.0 0.00 0.00 0.00 66 1014.2
20260906074330 59 160 0.0 0.0 0.00 0.00 0.00 66 1014.3
20260906074026 59 160 0.0 0.0 0.00 0.00 0.00 66 1014.2
20260906073724 59 160 0.0 0.0 0.00 0.00 0.00 66 1014.2
20260906073411 59 160 0.0 0.0 0.00 0.00 0.00 66 1014.1
20260906073103 60 160 0.0 0.0 0.00 0.00 0.00 66 1014.2
20260906072753 60 160 0.0 0.0 0.00 0.00 0.00 66 1014.1
20260906072444 60 160 0.0 0.0 0.00 0.00 0.00 66 1014.1
20260906072146 60 160 0.0 0.0 0.00 0.00 0.00 66 1014.1
20260906071416 60 160 0.0 0.0 0.00 0.00 0.00 66 1014.1
20260906071118 60 160 0.0 0.0 0.00 0.00 0.00 66 1014.0
20260906070817 60 160 0.0 0.0 0.00 0.00 0.00 66 1014.0
20260906070504 60 160 0.0 0.0 0.00 0.00 0.00 66 1014.1
20260906065728 60 160 0.0 0.0 0.00 0.00 0.00 66 1014.0
20260906065423 60 160 0.0 0.0 0.00 0.00 0.00 66 1014.1
20260906065125 60 160 0.0 0.0 0.00 0.00 0.00 66 1014.1
20260906064823 60 160 0.0 0.0 0.00 0.00 0.00 66 1014.1
20260906064514 60 160 0.0 0.0 0.00 0.00 0.00 66 1014.1
20260906064204 60 160 0.0 0.0 0.00 0.00 0.00 66 1014.0
20260906063907 60 160 0.0 0.0 0.00 0.00 0.00 66 1014.0
20260906063605 61 160 0.0 0.0 0.00 0.00 0.00 66 1014.1
20260906063303 61 160 0.0 0.0 0.00 0.00 0.00 66 1014.1
20260906062541 61 160 0.0 0.0 0.00 0.00 0.00 66 1014.0
20260906062244 61 160 0.0 0.0 0.00 0.00 0.00 66 1014.0
20260906061933 61 160 0.0 0.0 0.00 0.00 0.00 66 1014.2
20260906061621 61 160 0.0 0.0 0.00 0.00 0.00 66 1014.1
20260906061310 61 160 0.0 0.0 0.00 0.00 0.00 66 1014.1
20260906060959 61 160 0.0 0.0 0.00 0.00 0.00 66 1014.0
20260906060654 61 160 0.0 0.0 0.00 0.00 0.00 66 1014.1
20260906060347 61 160 0.0 0.0 0.00 0.00 0.00 66 1014.0
20260906060044 61 160 0.0 0.0 0.00 0.00 0.00 65 1014.1
20260906055744 61 160 0.0 0.0 0.00 0.00 0.00 65 1014.1
20260906055441 61 160 0.0 0.0 0.00 0.00 0.00 65 1014.1
20260906055136 61 160 0.0 0.0 0.00 0.00 0.00 65 1014.2
20260906054833 61 160 0.0 0.0 0.00 0.00 0.00 65 1014.2
20260906054524 61 160 0.0 0.0 0.00 0.00 0.00 65 1014.2
20260906054215 61 160 0.0 0.0 0.00 0.00 0.00 65 1014.1
20260906053904 62 160 0.0 0.0 0.00 0.00 0.00 65 1014.2
20260906053601 62 160 0.0 0.0 0.00 0.00 0.00 65 1014.1
20260906053259 62 160 0.0 0.0 0.00 0.00 0.00 65 1014.3
20260906052959 62 160 0.0 0.0 0.00 0.00 0.00 65 1014.3
20260906052651 62 160 0.0 0.0 0.00 0.00 0.00 65 1014.3
20260906052352 62 160 0.0 0.0 0.00 0.00 0.00 65 1014.3
20260906052046 62 160 0.0 0.0 0.00 0.00 0.00 65 1014.3
20260906051734 62 160 0.0 0.0 0.00 0.00 0.00 65 1014.2
20260906051424 62 160 0.0 0.0 0.00 0.00 0.00 65 1014.4
20260906051112 62 160 0.0 0.0 0.00 0.00 0.00 65 1014.3
20260906050757 62 160 0.0 0.0 0.00 0.00 0.00 65 1014.4
20260906050453 62 160 0.0 0.0 0.00 0.00 0.00 65 1014.4
20260906050148 62 160 0.0 0.0 0.00 0.00 0.00 65 1014.2
20260906045839 62 160 0.0 0.0 0.00 0.00 0.00 65 1014.3
20260906045530 62 160 0.0 0.0 0.00 0.00 0.00 65 1014.3
20260906045224 62 161 0.0 0.0 0.00 0.00 0.00 65 1014.3
20260906044915 62 161 0.0 0.0 0.00 0.00 0.00 65 1014.3
20260906044616 62 160 0.0 0.0 0.00 0.00 0.00 65 1014.2
20260906043855 62 159 0.0 0.0 0.00 0.00 0.00 64 1014.3
20260906043551 63 159 0.0 0.0 0.00 0.00 0.00 64 1014.3
20260906043239 63 96 0.0 0.0 0.00 0.00 0.00 64 1014.4
20260906042934 63 96 0.0 0.0 0.00 0.00 0.00 64 1014.4
20260906042214 63 96 0.0 0.0 0.00 0.00 0.00 64 1014.4
20260906041505 63 86 0.0 0.0 0.00 0.00 0.00 64 1014.3
20260906040319 63 53 0.0 0.0 0.00 0.00 0.00 64 1014.3
20260906040006 63 52 0.0 0.0 0.00 0.00 0.00 64 1014.3
20260906035706 63 52 0.0 0.0 0.00 0.00 0.00 64 1014.3
20260906035406 63 52 0.0 0.0 0.00 0.00 0.00 64 1014.3
20260906034640 63 53 0.0 0.0 0.00 0.00 0.00 64 1014.3
20260906034328 63 53 0.0 0.0 0.00 0.00 0.00 64 1014.3
20260906033605 64 52 0.0 0.0 0.00 0.00 0.00 63 1014.2
20260906033255 64 53 0.0 0.0 0.00 0.00 0.00 64 1014.3
20260906032955 64 57 0.0 0.0 0.00 0.00 0.00 63 1014.2
20260906032657 64 57 0.0 0.0 0.00 0.00 0.00 64 1014.2
20260906031935 64 57 0.0 0.0 0.00 0.00 0.00 64 1014.1
20260906031627 64 57 0.0 0.0 0.00 0.00 0.00 64 1014.2
20260906031330 64 57 0.0 0.0 0.00 0.00 0.00 64 1014.1
20260906031031 64 57 0.0 0.0 0.00 0.00 0.00 64 1014.1
20260906030310 65 78 0.0 0.0 0.00 0.00 0.00 64 1014.1
20260906030005 65 145 0.0 0.0 0.00 0.00 0.00 64 1014.1
20260906025706 65 121 0.0 0.0 0.00 0.00 0.00 64 1014.1
20260906025403 65 133 0.0 0.0 0.00 0.00 0.00 64 1014.1
20260906025051 65 69 0.0 0.0 0.00 0.00 0.00 63 1013.9
20260906024748 65 69 0.0 0.0 0.00 0.00 0.00 63 1013.9
20260906024446 65 69 0.0 0.0 0.00 0.00 0.00 63 1013.9
20260906024134 65 69 0.0 0.0 0.00 0.00 0.00 63 1013.8
20260906023831 65 69 0.0 0.0 0.00 0.00 0.00 63 1013.9
20260906023519 65 34 0.0 0.0 0.00 0.00 0.00 63 1013.9
20260906023213 65 34 0.0 0.0 0.00 0.00 0.00 63 1013.9
20260906022915 65 34 0.0 0.0 0.00 0.00 0.00 63 1013.8
20260906022605 65 34 0.0 0.0 0.00 0.00 0.00 63 1013.7
20260906022307 65 34 0.0 0.0 0.00 0.00 0.00 63 1013.7
20260906021536 66 36 0.0 0.0 0.00 0.00 0.00 63 1013.7
20260906020817 66 36 0.0 0.0 0.00 0.00 0.00 63 1013.6
20260906020506 66 36 0.0 0.0 0.00 0.00 0.00 63 1013.7
20260906020208 66 36 0.0 0.0 0.00 0.00 0.00 63 1013.6
20260906015911 66 36 0.0 0.0 0.00 0.00 0.00 63 1013.7
20260906015609 66 36 0.0 0.0 0.00 0.00 0.00 62 1013.6
20260906015300 66 36 0.0 0.0 0.00 0.00 0.00 61 1013.6
20260906014949 67 36 0.0 0.0 0.00 0.00 0.00 61 1013.5
20260906014635 67 58 0.0 0.0 0.00 0.00 0.00 61 1013.4
20260906014336 67 58 0.0 0.0 0.00 0.00 0.00 61 1013.3
20260906014037 67 58 0.0 0.0 0.00 0.00 0.00 61 1013.3
20260906013736 67 58 0.0 0.0 0.00 0.00 0.00 61 1013.3
20260906013439 67 58 0.0 0.0 0.00 0.00 0.00 61 1013.3
20260906012729 68 58 0.0 0.0 0.00 0.00 0.00 61 1013.3
20260906012418 68 58 0.0 0.0 0.00 0.00 0.00 60 1013.2
20260906012104 68 58 0.0 0.0 0.00 0.00 0.00 61 1013.2
20260906011340 68 57 0.0 0.0 0.00 0.00 0.00 59 1013.1
20260906011032 68 57 0.0 0.0 0.00 0.00 0.00 59 1013.2
20260906010728 69 58 0.0 0.0 0.00 0.00 0.00 59 1013.2
20260906010001 69 58 0.0 0.0 0.00 0.00 0.00 58 1013.2
20260906005700 69 58 0.0 0.0 0.00 0.00 0.00 58 1013.2
20260906005401 69 58 0.0 0.0 0.00 0.00 0.00 58 1013.2
20260906005057 69 58 0.0 0.0 0.00 0.00 0.00 58 1013.2
20260906004746 70 58 0.0 0.0 0.00 0.00 0.00 58 1013.1
20260906004441 70 58 0.0 0.0 0.00 0.00 0.00 58 1013.1
20260906004132 70 58 0.0 0.0 0.00 0.00 0.00 57 1013.1
20260906003407 70 58 0.0 0.0 0.00 0.00 0.00 56 1013.0
20260906002638 71 58 0.0 0.0 0.00 0.00 0.00 56 1012.9
20260906001858 71 58 0.0 0.0 0.00 0.00 0.00 55 1012.8
20260906001547 72 58 0.0 0.0 0.00 0.00 0.00 55 1012.7
20260906000815 72 58 0.0 0.0 0.00 0.00 0.00 54 1012.6
20260906000511 72 58 0.0 0.0 0.00 0.00 0.00 54 1012.6
20260906000159 73 58 0.0 0.0 0.00 0.00 0.00 53 1012.4
20260905235846 73 58 0.0 0.0 0.00 0.00 0.00 53 1012.4
20260905235539 73 58 0.0 0.0 0.00 0.00 0.00 53 1012.4
20260905235243 74 58 0.0 0.0 0.00 0.00 0.00 52 1012.3
20260905234935 74 58 0.0 0.0 0.00 0.00 0.00 52 1012.1
20260905234637 74 57 0.0 0.0 0.00 0.00 0.00 51 1012.2
20260905233915 74 58 0.0 0.0 0.00 0.00 0.00 50 1012.2
20260905233201 75 54 0.0 0.0 0.00 0.00 0.00 49 1012.0
20260905232905 75 52 0.0 0.0 0.00 0.00 0.00 49 1012.0
20260905232555 75 52 0.0 0.0 0.00 0.00 0.00 49 1012.1
20260905231832 76 44 0.0 2.0 0.00 0.00 0.00 47 1012.2
20260905231123 76 59 0.0 3.0 0.00 0.00 0.00 49 1012.2
20260905230817 76 67 0.0 2.0 0.00 0.00 0.00 49 1012.2
20260905225637 77 343 0.0 2.0 0.00 0.00 0.00 47 1012.0
20260905225336 77 5 0.0 2.0 0.00 0.00 0.00 47 1012.1
20260905225030 77 90 0.0 6.0 0.00 0.00 0.00 46 1012.2
20260905224729 77 55 1.0 8.0 0.00 0.00 0.00 46 1012.2
20260905224425 77 346 1.0 8.0 0.00 0.00 0.00 46 1012.1
20260905224126 77 86 1.0 8.0 0.00 0.00 0.00 46 1012.1
20260905223814 77 21 1.0 8.0 0.00 0.00 0.00 46 1012.1
20260905223502 77 78 2.0 8.0 0.00 0.00 0.00 45 1012.0
20260905222739 78 25 0.0 3.0 0.00 0.00 0.00 45 1011.9
20260905222430 78 114 0.0 6.0 0.00 0.00 0.00 45 1011.9
20260905222118 78 11 0.0 6.0 0.00 0.00 0.00 45 1011.9
20260905221811 78 332 1.0 6.0 0.00 0.00 0.00 45 1011.8
20260905221458 78 40 1.0 9.0 0.00 0.00 0.00 44 1011.8
20260905221147 78 104 2.0 9.0 0.00 0.00 0.00 44 1011.8
20260905220843 78 13 2.0 9.0 0.00 0.00 0.00 44 1011.8
20260905220546 78 138 3.0 9.0 0.00 0.00 0.00 45 1011.8
20260905220244 78 70 3.0 9.0 0.00 0.00 0.00 44 1011.8
20260905215931 78 86 3.0 9.0 0.00 0.00 0.00 44 1011.7
20260905215622 78 117 1.0 8.0 0.00 0.00 0.00 47 1011.8
20260905215308 78 323 1.0 7.0 0.00 0.00 0.00 46 1011.7
20260905214958 78 108 1.0 7.0 0.00 0.00 0.00 46 1011.7
20260905214237 78 39 1.0 4.0 0.00 0.00 0.00 45 1011.7
20260905213923 78 13 1.0 4.0 0.00 0.00 0.00 43 1011.6
20260905213613 78 265 1.0 9.0 0.00 0.00 0.00 44 1011.6
20260905213303 79 334 2.0 9.0 0.00 0.00 0.00 44 1011.6
20260905212951 79 28 2.0 9.0 0.00 0.00 0.00 44 1011.7
20260905212640 79 29 3.0 9.0 0.00 0.00 0.00 45 1011.7